This demonstration page uses our WeatherBlox Daily Observations layout. Learn more.

Left ArrowRight Arrow

Hourly Observations for November 8, 2020

Temp ( °F °C ) Dew Point ( °F °C ) Humidity (%) Winds ( mph kmh ) Pressure ( in mb ) Visibility ( mi km ) Precip ( " mm )
12:53 am 00:53 Clear 41 5 40 4.4 96 96 Calm 30.26 1025 9 14 0.00 0.00
1:53 am 01:53 Clear 41 5 39 3.9 93 93 Calm 30.27 1025 9 14 0.00 0.00
2:53 am 02:53 Clear 41 5 39 3.9 93 93 Calm 30.27 1025 9 14 0.00 0.00
3:53 am 03:53 Clear 40 4.4 39 3.9 97 97 Calm 30.28 1026 8 13 0.00 0.00
4:53 am 04:53 Clear 41 5 39 3.9 93 93 Calm 30.29 1026 8 13 0.00 0.00
5:53 am 05:53 Clear with Mist and Fog 40 4.4 39 3.9 97 97 Calm 30.30 1026 6 10 0.00 0.00
6:53 am 06:53 Clear 40 4.4 39 3.9 97 97 Calm 30.32 1027 7 11 0.00 0.00
7:53 am 07:53 Sunny with Mist and Fog 42 5.6 40 4.4 92 92 Calm 30.34 1027 4 6 0.00 0.00
8:53 am 08:53 Sunny 51 10.6 46 7.8 83 83 Calm 30.35 1028 7 11 0.00 0.00
9:53 am 09:53 Sunny 62 16.7 48 8.9 60 60 Calm 30.35 1028 10 16 0.00 0.00
10:53 am 10:53 Sunny 70 21.1 47 8.3 44 44 Calm 30.35 1028 10 16 0.00 0.00
11:53 am 11:53 Sunny 74 23.3 45 7.2 36 36 VRB 3 6 30.33 1027 10 16 0.00 0.00
12:53 pm 12:53 Sunny 76 24.4 49 9.4 39 39 E 6 9 30.31 1027 10 16 0.00 0.00
1:53 pm 13:53 Sunny 79 26.1 50 10 36 36 VRB 6 9 30.29 1026 10 16 0.00 0.00
2:53 pm 14:53 Sunny 78 25.6 52 11.1 40 40 VRB 3 6 30.28 1025 10 16 0.00 0.00
3:53 pm 15:53 Sunny 79 26.1 52 11.1 39 39 ESE 7 11 30.27 1025 10 16 0.00 0.00
4:53 pm 16:53 Sunny 76 24.4 51 10.6 42 42 ESE 3 6 30.26 1025 10 16 0.00 0.00
5:53 pm 17:53 Clear 64 17.8 49 9.4 58 58 Calm 30.27 1025 10 16 0.00 0.00
6:53 pm 18:53 Clear 56 13.3 47 8.3 72 72 Calm 30.27 1025 10 16 0.00 0.00
7:53 pm 19:53 Clear 52 11.1 46 7.8 80 80 Calm 30.27 1025 10 16 0.00 0.00
8:53 pm 20:53 Clear 49 9.4 46 7.8 90 90 Calm 30.27 1025 10 16 0.00 0.00
9:53 pm 21:53 Clear 47 8.3 43 6.1 86 86 Calm 30.27 1025 10 16 0.00 0.00
10:53 pm 22:53 Clear 46 7.8 44 6.7 93 93 Calm 30.27 1025 10 16 0.00 0.00
11:53 pm 23:53 Clear 45 7.2 42 5.6 90 90 Calm 30.25 1025 10 16 0.00 0.00

Powered by AerisWeather